FW5763 Weather Reports


time (UTC)temp
C
wind
direction
speed
KPH
gust
KPH
rain 1hr
cm
rain 24hr
cm
rain mn
cm
humidity
%
barometer
mb
20260507041117 16 0.0 1.6 0.00 0.00 0.00 78 1019.1
20260507040116 16 0.0 0.0 0.00 0.00 0.00 79 1019.0
20260507035136 16 0.0 0.0 0.00 0.00 0.00 79 1018.9
20260507034117 16 241 1.6 3.2 0.00 0.00 0.00 78 1019.0
20260507033116 17 263 1.6 3.2 0.00 0.00 0.00 77 1018.8
20260507032117 17 194 1.6 3.2 0.00 0.00 0.00 75 1018.7
20260507031136 18 180 1.6 3.2 0.00 0.00 0.00 72 1018.7
20260507030117 19 142 1.6 6.4 0.00 0.00 0.00 68 1018.5
20260507025116 20 192 0.0 1.6 0.00 0.00 0.00 64 1018.4
20260507024117 20 0.0 0.0 0.00 0.00 0.00 65 1018.4
20260507023116 20 91 3.2 4.8 0.00 0.00 0.00 63 1018.2
20260507022136 21 105 3.2 9.7 0.00 0.00 0.00 61 1018.2
20260507021136 21 123 4.8 9.7 0.00 0.00 0.00 59 1018.2
20260507020137 21 100 6.4 12.9 0.00 0.00 0.00 58 1018.2
20260507015116 22 99 4.8 8.0 0.00 0.00 0.00 55 1018.2
20260507014116 22 141 1.6 4.8 0.00 0.00 0.00 53 1018.2
20260507013116 23 242 4.8 6.4 0.00 0.00 0.00 55 1018.3
20260507012116 23 242 4.8 9.7 0.00 0.00 0.00 54 1018.3
20260507011116 23 266 6.4 9.7 0.00 0.00 0.00 55 1018.2
20260507010116 23 253 4.8 9.7 0.00 0.00 0.00 56 1018.1
20260507005115 23 141 6.4 14.5 0.00 0.00 0.00 55 1018.1
20260507004116 23 198 8.0 12.9 0.00 0.00 0.00 55 1018.0
20260507003116 23 171 6.4 14.5 0.00 0.00 0.00 55 1018.0
20260507002116 23 179 8.0 14.5 0.00 0.00 0.00 54 1017.9
20260507001116 23 236 4.8 6.4 0.00 0.00 0.00 55 1017.9
20260507000116 23 207 4.8 8.0 0.00 0.00 0.00 55 1017.8
20260506235116 22 222 6.4 12.9 0.00 0.00 0.00 55 1017.9
20260506234117 22 194 9.7 14.5 0.00 0.00 0.00 55 1017.9
20260506233116 22 183 6.4 11.3 0.00 0.00 0.00 55 1018.0
20260506232136 22 171 6.4 9.7 0.00 0.00 0.00 56 1018.0
20260506231116 22 235 3.2 6.4 0.00 0.00 0.00 56 1018.0
20260506230116 22 195 6.4 9.7 0.00 0.00 0.00 57 1018.2
20260506225136 22 224 4.8 12.9 0.00 0.00 0.00 57 1018.5
20260506224116 22 229 8.0 11.3 0.00 0.00 0.00 57 1018.6
20260506223116 22 277 4.8 9.7 0.00 0.00 0.00 57 1018.6
20260506222116 22 204 8.0 14.5 0.00 0.00 0.00 56 1018.6
20260506221117 21 157 4.8 12.9 0.00 0.00 0.00 58 1018.7
20260506220116 21 213 9.7 17.7 0.00 0.00 0.00 58 1018.8
20260506215115 21 195 11.3 14.5 0.00 0.00 0.00 59 1018.8
20260506214156 21 181 4.8 12.9 0.00 0.00 0.00 60 1019.1
20260506213116 21 245 12.9 19.3 0.00 0.00 0.00 60 1019.3
20260506212116 21 227 11.3 22.5 0.00 0.00 0.00 61 1019.4
20260506211116 21 207 14.5 19.3 0.00 0.00 0.00 61 1019.4
20260506210116 21 230 12.9 17.7 0.00 0.00 0.00 61 1019.6
20260506205136 20 199 9.7 16.1 0.00 0.00 0.00 62 1019.5
20260506204117 21 201 9.7 17.7 0.00 0.00 0.00 61 1019.7
20260506203136 21 214 8.0 11.3 0.00 0.00 0.00 62 1019.8
20260506202116 20 211 6.4 11.3 0.00 0.00 0.00 62 1019.9
20260506201116 20 209 8.0 16.1 0.00 0.00 0.00 62 1020.0
20260506200136 20 206 8.0 17.7 0.00 0.00 0.00 63 1020.0
20260506195116 20 211 8.0 14.5 0.00 0.00 0.00 64 1020.1
20260506194136 19 185 6.4 12.9 0.00 0.00 0.00 64 1020.2
20260506193116 19 213 4.8 12.9 0.00 0.00 0.00 65 1020.2
20260506192116 18 203 6.4 12.9 0.00 0.00 0.00 67 1020.3
20260506191116 18 218 8.0 12.9 0.00 0.00 0.00 66 1020.4
20260506190116 18 215 6.4 12.9 0.00 0.00 0.00 66 1020.3
20260506185116 18 195 8.0 14.5 0.00 0.00 0.00 66 1020.3
20260506184116 18 138 8.0 14.5 0.00 0.00 0.00 66 1020.3
20260506183116 18 206 8.0 14.5 0.00 0.00 0.00 68 1020.3
20260506182116 18 193 6.4 12.9 0.00 0.00 0.00 69 1020.5
20260506181116 17 218 8.0 11.3 0.00 0.00 0.00 70 1020.5
20260506180116 17 218 8.0 9.7 0.00 0.00 0.00 71 1020.5
20260506175116 17 221 11.3 14.5 0.00 0.00 0.00 72 1020.6
20260506174116 17 207 8.0 9.7 0.00 0.00 0.00 72 1020.5
20260506173136 17 180 6.4 11.3 0.00 0.00 0.00 73 1020.5
20260506172116 17 181 6.4 9.7 0.00 0.00 0.00 75 1020.6
20260506171116 16 175 4.8 8.0 0.00 0.00 0.00 75 1020.5
20260506170116 16 210 6.4 12.9 0.00 0.00 0.00 75 1020.5
20260506165116 16 244 4.8 12.9 0.00 0.00 0.00 75 1020.5
20260506164136 16 235 6.4 9.7 0.00 0.00 0.00 73 1020.7
20260506163116 16 311 3.2 4.8 0.00 0.00 0.00 75 1020.7
20260506162136 16 227 3.2 8.0 0.00 0.00 0.00 75 1020.7
20260506161115 16 209 3.2 4.8 0.00 0.00 0.00 76 1020.7
20260506160116 15 236 3.2 6.4 0.00 0.00 0.00 77 1020.8
20260506155116 15 219 3.2 4.8 0.00 0.00 0.00 78 1020.8
20260506154156 15 231 3.2 3.2 0.00 0.00 0.00 78 1020.8
20260506153116 15 265 1.6 3.2 0.00 0.00 0.00 77 1020.9
20260506152116 15 158 0.0 3.2 0.00 0.00 0.00 78 1020.8
20260506151136 15 51 1.6 4.8 0.00 0.00 0.00 79 1020.8
20260506150136 15 96 1.6 4.8 0.00 0.00 0.00 81 1020.9
20260506145136 14 14 1.6 1.6 0.00 0.00 0.00 83 1020.8
20260506144116 14 92 3.2 4.8 0.00 0.00 0.00 85 1021.0
20260506143116 13 80 0.0 3.2 0.00 0.00 0.00 87 1020.9
20260506142116 13 0.0 0.0 0.00 0.00 0.00 90 1021.0
20260506141116 12 352 0.0 1.6 0.00 0.00 0.00 91 1020.8
20260506140116 12 0.0 0.0 0.00 0.00 0.00 91 1020.7
20260506135136 12 0.0 1.6 0.00 0.00 0.00 91 1020.5
20260506134136 12 0.0 0.0 0.00 0.00 0.00 91 1020.4
20260506133135 12 0.0 0.0 0.00 0.00 0.00 91 1020.3
20260506132115 12 0.0 0.0 0.00 0.00 0.00 91 1020.2
20260506131116 12 0.0 0.0 0.00 0.00 0.00 91 1020.0
20260506130116 12 0.0 0.0 0.00 0.00 0.00 91 1020.0
20260506125135 12 0.0 0.0 0.00 0.00 0.00 91 1019.9
20260506124115 12 0.0 0.0 0.00 0.00 0.00 91 1019.9
20260506123236 12 0.0 0.0 0.00 0.00 0.00 91 1019.9
20260506122115 12 352 0.0 1.6 0.00 0.00 0.00 91 1019.8
20260506121115 11 352 1.6 1.6 0.00 0.00 0.00 91 1019.7
20260506120116 12 0.0 0.0 0.00 0.00 0.00 90 1019.7
20260506115135 12 0.0 0.0 0.00 0.00 0.00 91 1019.6
20260506114115 12 0.0 0.0 0.00 0.00 0.00 91 1019.6
20260506113116 11 0.0 0.0 0.00 0.00 0.00 91 1019.6
20260506112135 11 352 0.0 1.6 0.00 0.00 0.00 91 1019.6
20260506111115 11 0.0 0.0 0.00 0.00 0.00 91 1019.5
20260506110116 11 0.0 0.0 0.00 0.00 0.00 91 1019.5
20260506105135 11 0.0 0.0 0.00 0.00 0.00 91 1019.5
20260506104115 11 0.0 0.0 0.00 0.00 0.00 91 1019.4
20260506103116 11 0.0 0.0 0.00 0.00 0.00 91 1019.4
20260506102116 11 0.0 1.6 0.00 0.00 0.00 91 1019.5
20260506101115 11 0.0 0.0 0.00 0.00 0.00 91 1019.5
20260506100115 11 0.0 0.0 0.00 0.00 0.00 91 1019.5
20260506095115 11 0.0 0.0 0.00 0.00 0.00 90 1019.4
20260506094115 11 0.0 0.0 0.00 0.00 0.00 90 1019.6
20260506093115 11 0.0 0.0 0.00 0.00 0.00 90 1019.7
20260506092116 11 0.0 0.0 0.00 0.00 0.00 89 1019.7
20260506091115 11 26 1.6 3.2 0.00 0.00 0.00 89 1019.6
20260506090116 11 0.0 0.0 0.00 0.00 0.00 89 1019.5
20260506085116 11 0.0 0.0 0.00 0.00 0.00 89 1019.4
20260506084116 11 26 0.0 1.6 0.00 0.00 0.00 88 1019.5
20260506083115 11 0.0 0.0 0.00 0.00 0.00 87 1019.4
20260506082115 11 0.0 0.0 0.00 0.00 0.00 87 1019.4
20260506081135 11 0.0 0.0 0.00 0.00 0.00 87 1019.3
20260506080115 12 0.0 0.0 0.00 0.00 0.00 87 1019.3
20260506073115 12 0.0 0.0 0.00 0.00 0.00 86 1019.0
20260506072115 12 0.0 0.0 0.00 0.00 0.00 86 1019.0
20260506071115 12 26 0.0 1.6 0.00 0.00 0.00 86 1019.0
20260506070115 12 0.0 1.6 0.00 0.00 0.00 85 1018.9
20260506062115 13 0.0 0.0 0.00 0.00 0.00 85 1018.7
20260506061135 13 0.0 0.0 0.00 0.00 0.00 84 1018.7
20260506060115 13 0.0 0.0 0.00 0.00 0.00 84 1018.7
20260506051115 13 0.0 0.0 0.00 0.00 0.00 81 1018.5
20260506050115 13 0.0 0.0 0.00 0.00 0.00 81 1018.4
20260506045115 13 0.0 0.0 0.00 0.00 0.00 82 1018.3
20260506044115 13 0.0 0.0 0.00 0.00 0.00 82 1018.2
20260506043115 13 0.0 0.0 0.00 0.00 0.00 82 1018.1
20260506042115 13 0.0 1.6 0.00 0.00 0.00 83 1018.1